China Lake, CA

6:04 AM PDT on May 28, 2017 (GMT -0700)
China Lake NAWS

Weather History for KNID - January, 2013

Change the Weather History Date:

Monday, January 28, 2013

  Actual Average Record
Temperature  
Mean Temperature 44 °F -  
Max Temperature 52 °F 58 °F 80 °F (2017)
Min Temperature 35 °F 33 °F 22 °F (1999)
Degree Days  
Heating Degree Days 22    
Moisture  
Dew Point 18 °F    
Average Humidity 40    
Maximum Humidity 62    
Minimum Humidity 19    
Precipitation  
Precipitation 0.00 in - - ()
Sea Level Pressure  
Sea Level Pressure 30.06 in    
Wind  
Wind Speed 9 mph (West)    
Max Wind Speed 14 mph    
Max Gust Speed 17 mph    
Visibility 10 miles    
Events      
Averages and records for this station are not official NWS values.
T = Trace of Precipitation, MM = Missing Value Source: NWS Daily Summary

Daily Weather History Graph

Daily Weather History Graph

Search for Another Location

Airport or City:

Trip Planner

Search our weather history database for the weather conditions in past years. The results will help you decide how hot, cold, wet, or windy it might be!

Date:

Astronomy

Jan. 28, 2013 Rise Set
Actual Time 6:53 AM PST 5:14 PM PST
Civil Twilight 6:26 AM PST 5:41 PM PST
Nautical Twilight 5:55 AM PST 6:12 PM PST
Astronomical Twilight 5:25 AM PST 6:42 PM PST
Moon 7:08 PM PST 7:26 AM PST
Length of Visible Light 11h 15m
Length of Day
10h 21m
Full, 97% of the Moon is Illuminated
Jan 28
Full
Feb 3
Last Quarter
Feb 9
New
Feb 17
First Quarter
Feb 25
Full

Hourly Weather History & Observations

Time (PST) Temp. Windchill Dew Point Humidity Pressure Visibility Wind Dir Wind Speed Gust Speed Precip Events Conditions
12:56 AM 43.0 °F 37.7 °F 24.1 °F 47% 29.97 in 10.0 mi NW 9.2 mph - N/A   Scattered Clouds
1:56 AM 39.9 °F 32.1 °F 17.1 °F 40% 29.98 in 10.0 mi West 13.8 mph - N/A   Clear
2:56 AM 39.0 °F 31.0 °F 23.0 °F 53% 30.00 in 10.0 mi West 13.8 mph - N/A   Clear
3:56 AM 39.0 °F 32.3 °F 21.9 °F 50% 30.00 in 10.0 mi West 10.4 mph - N/A   Clear
4:56 AM 37.9 °F 30.9 °F 17.1 °F 43% 30.00 in 10.0 mi West 10.4 mph - N/A   Clear
5:56 AM 35.1 °F 27.4 °F 17.1 °F 48% 30.02 in 10.0 mi West 10.4 mph - N/A   Clear
6:56 AM 35.1 °F 27.9 °F 16.0 °F 46% 30.05 in 10.0 mi West 9.2 mph - N/A   Partly Cloudy
7:56 AM 37.9 °F 32.7 °F 16.0 °F 41% 30.05 in 10.0 mi WNW 6.9 mph - N/A   Partly Cloudy
8:56 AM 44.1 °F 37.7 °F 14.0 °F 30% 30.06 in 10.0 mi NW 12.7 mph 17.3 mph N/A   Partly Cloudy
9:56 AM 46.9 °F - 12.0 °F 24% 30.07 in 10.0 mi NNW 9.2 mph - N/A   Clear
10:56 AM 48.9 °F - 10.9 °F 22% 30.07 in 10.0 mi NW 9.2 mph - N/A   Clear
11:56 AM 48.9 °F - 12.0 °F 23% 30.06 in 10.0 mi WNW 8.1 mph - N/A   Clear
12:56 PM 51.1 °F - 17.1 °F 26% 30.04 in 10.0 mi SSW 6.9 mph - N/A   Scattered Clouds
1:56 PM 51.1 °F - 10.9 °F 20% 30.04 in 10.0 mi Variable 5.8 mph - N/A   Mostly Cloudy
2:56 PM 52.0 °F - 10.0 °F 19% 30.03 in 10.0 mi Variable 4.6 mph - N/A   Mostly Cloudy
3:56 PM 51.1 °F - 16.0 °F 25% 30.05 in 10.0 mi West 5.8 mph - N/A   Mostly Cloudy
4:56 PM 50.0 °F - 19.0 °F 29% 30.06 in 10.0 mi West 6.9 mph - N/A   Clear
5:56 PM 45.0 °F 40.1 °F 21.9 °F 40% 30.09 in 10.0 mi West 9.2 mph - N/A   Mostly Cloudy
6:56 PM 39.9 °F 35.8 °F 21.9 °F 49% 30.12 in 10.0 mi SE 5.8 mph - N/A   Scattered Clouds
7:56 PM 39.9 °F 34.5 °F 23.0 °F 51% 30.12 in 10.0 mi South 8.1 mph - N/A   Mostly Cloudy
8:56 PM 39.0 °F 34.0 °F 23.0 °F 53% 30.12 in 10.0 mi South 6.9 mph - N/A   Mostly Cloudy
9:56 PM 37.0 °F 31.6 °F 23.0 °F 57% 30.13 in 10.0 mi SSW 6.9 mph - N/A   Clear
10:56 PM 36.0 °F 29.6 °F 24.1 °F 62% 30.13 in 10.0 mi SSW 8.1 mph - N/A   Mostly Cloudy
11:56 PM 35.1 °F 32.2 °F 21.9 °F 59% 30.14 in 10.0 mi North 3.5 mph - N/A   Clear